Location: Bennemühlen
(52.5740°N, 9.7135°E)
Time: 17:21:23
(UTC+00:00)

Tiros 1 despin weight - Pass Details

Date: 24 February 2026
Orbit: 556 x 593 km, 48.2° (Epoch: 11 March)

Event Time Altitude Azimuth Distance (km) Brightness Sun altitude
Rises 15:42:13 0° 269° (W) 2,743 ? 8.8°
Reaches altitude 10° 15:44:34 10° 262° (W) 1,843 ? 8.5°
Maximum altitude 15:48:29 39° 194° (SSW) 842 ? 8.0°
Drops below altitude 10° 15:52:24 10° 125° (SE) 1,835 ? 7.5°
Sets 15:54:44 0° 117° (ESE) 2,729 ? 7.1°
